User: anonymous
Location: Sewell
(39.7660°N, 75.1450°W)
Time: 06:21:21
(UTC-04:00)
Language:

ISS - Orbit

View from above orbital plane
View from above orbital plane
View from above satellite
View from above satellite

Ground track
Ground track

The orbit data is extracted from the following two-line orbital elements,

1 25544U 98067A   14293.52032407  .00019212  00000-0  33606-3 0  2700
2 25544 051.6464 198.3211 0002342 273.6024 088.7947 15.50645920910772
Epoch (UTC): 20 October 2014 12:29:16
Eccentricity: 0.0002342
inclination: 51.6464°
perigee height: 413 km
apogee height: 416 km
right ascension of ascending node: 198.3211°
argument of perigee: 273.6024°
revolutions per day: 15.50645920
mean anomaly at epoch: 88.7947°
orbit number at epoch: 91077

The dashed part of the orbit path shows where the satellite is in the earth's shadow,  

DLR